Regional Weather Roundup
Issued by NWS

Home | Current Version | Previous Version | Text Only | Print | Product List | Glossary Off
Versions: 1 2 3 4 5 6 7 8 9 10 11 12 13 14 15 16 17 18 19 20 21 22 23 24 25 26 27 28 29 30 31 32 33 34 35 36 37 38 39 40 41 42 43 44 45 46 47 48 49 50

000
ASUS43 KOAX 221702
RWRNE

WEATHER ROUNDUP FOR NEBRASKA
NATIONAL WEATHER SERVICE OMAHA NE
1200 PM CDT SUN OCT 22 2017

NOTES: SATELLITE DATA IS BEING USED TO AUGMENT CLOUD COVER ABOVE
       12000 FEET.
       "FAIR" INDICATES FEW OR NO CLOUDS BELOW 12,000 FEET WITH NO
       SIGNIFICANT WEATHER AND/OR OBSTRUCTIONS TO VISIBILITY.


NEZ001>004-019>022-054>056-221800-
NEBRASKA PANHANDLE

CITY           SKY/WX    TMP DP  RH WIND       PRES   REMARKS
SCOTTSBLUFF    SUNNY     63  28  26 W17G31    30.08F
ALLIANCE       SUNNY     60  25  26 W24G31    30.06F
CHADRON        SUNNY     62  23  22 W15G21    30.01F
GORDON         FAIR      57  26  30 SW16G22   30.02S
KIMBALL        SUNNY     58  26  28 W21G30    30.14F
SIDNEY         SUNNY     60  21  22 W14G24    30.13F
$$

NEZ057>060-069>072-079>082-221800-
SOUTHWEST NEBRASKA

CITY           SKY/WX    TMP DP  RH WIND       PRES   REMARKS
NORTH PLATTE   SUNNY     60  32  34 W7        30.12F
IMPERIAL       SUNNY     61  19  19 SW17G25   30.15F
LEXINGTON      SUNNY     60  29  31 W10       30.14F
MCCOOK         SUNNY     61  26  26 SW16G24   30.17F
OGALLALA       SUNNY     61  22  22 SW13G21   30.12F
$$

NEZ005>010-023>029-035>040-094-221800-
NORTH CENTRAL NEBRASKA

CITY           SKY/WX    TMP DP  RH WIND       PRES   REMARKS
VALENTINE      SUNNY     62  26  25 SW24G31   29.99F
AINSWORTH      SUNNY     58  30  34 SW14G21   30.02F
BROKEN BOW     SUNNY     57  29  34 W18       30.10F
O`NEILL        SUNNY     60  32  34 SW13      30.05F
ORD            SUNNY     58  32  37 W13       30.08F
THEDFORD       SUNNY     60  28  29 W18       30.07F
$$

NEZ041-046>049-061>064-073>077-083>087-221800-
SOUTH CENTRAL NEBRASKA

CITY           SKY/WX    TMP DP  RH WIND       PRES   REMARKS
GRAND ISLAND   SUNNY     60  33  36 SW14      30.12F
AURORA         SUNNY     62  30  29 SW13      30.12F
HASTINGS       SUNNY     61  26  26 W14       30.13F
HEBRON         SUNNY     65  31  28 SW8       30.15S
HOLDREGE       SUNNY     60  30  31 W10       30.14F
KEARNEY        SUNNY     58  28  32 W14       30.13F
YORK           SUNNY     64  34  32 S10       30.13S
$$

NEZ011>018-030>034-042>045-221800-
NORTHEAST NEBRASKA

CITY           SKY/WX    TMP DP  RH WIND       PRES   REMARKS
NORFOLK        SUNNY     64  31  28 SW15G22   30.07F
ALBION         SUNNY     61  34  36 S15G21    30.08F
BLAIR          SUNNY     62  35  36 SW3       30.11S
COLUMBUS       SUNNY     61  37  41 MISG      30.12F
FREMONT        SUNNY     61  35  37 W7        30.12S
TEKAMAH        SUNNY     65  30  27 W8        30.10S
WAYNE          SUNNY     61  29  29 SW9       30.08F
$$

NEZ050>053-065>068-078-088>093-221800-
SOUTHEAST NEBRASKA

CITY           SKY/WX    TMP DP  RH WIND       PRES   REMARKS
LINCOLN        SUNNY     64  36  35 SW10      30.14F
OMAHA EPPLEY   MOSUNNY   61  39  44 S5        30.12S
BEATRICE       SUNNY     63  39  42 SW7       30.15S
FALLS CITY       N/A     62  41  46 NW9       30.14R
NEBRASKA CITY  SUNNY     63  38  40 W8        30.14S
PLATTSMOUTH    SUNNY     63  37  38 W6        30.13S
$$

NEZ044-045-051>053-067-221800-
OMAHA AREA

CITY           SKY/WX    TMP DP  RH WIND       PRES   REMARKS
OMAHA EPPLEY   MOSUNNY   61  39  44 S5        30.12S
BLAIR          SUNNY     62  35  36 SW3       30.11S
FREMONT        SUNNY     61  35  37 W7        30.12S
MILLARD        SUNNY     62  36  38 W6        30.13R
OFFUTT AFB     SUNNY     61  40  44 CALM      30.12F
PLATTSMOUTH    SUNNY     63  37  38 W6        30.13S
WAHOO          FAIR      65  31  28 SW5       30.12S
$$



USA.gov is the U.S. government's official web portal to all federal, state and local government web resources and services.